User: anonymous   Login
Location: Unspecified
(0.0000°N, 0.0000°E)
Time: 21:50:23
(UTC+00:00)
Language:

USA 268 - Orbit

View from above orbital plane
View from above orbital plane
View from above satellite
View from above satellite

Ground track
Ground track

The orbit data is extracted from the following two-line orbital elements,

1 41584U 16036A   18250.72255611 0.00000000  00000-0  00000-0 0    06
2 41584   7.0743 351.8969 0048455  49.5179 310.8866  1.00270000    09
Epoch (UTC): 07 September 2018 17:20:28
Eccentricity: 0.0048455
inclination: 7.0743°
perigee height: 35582 km
apogee height: 35991 km
right ascension of ascending node: 351.8969°
argument of perigee: 49.5179°
revolutions per day: 1.00270000
mean anomaly at epoch: 310.8866°
orbit number at epoch: 0

The dashed part of the orbit path shows where the satellite is in the earth's shadow,  

DLR